KLM792 SBGR-EHAM

Flight info

Callsign KLM792
Flight time N/A
Altitude 31000
Route VUMEV UZ14 NITLU UZ3 UTLEV UZ88 SUDKI/N0505F330 UZ88 DOTKU DCT DAKAP UZ51 MOVGA DCT POKSI DCT NATAS/M084F350 DCT ERNEK DCT 25N030W 30N028W 35N025W DCT BAVAS DCT 43N020W/M084F370 47N015W DCT TAMEL DCT EVBAK DCT GAPLI/N0481F370 DCT GAJIT DCT ENHAQ M197 REDFA
Aircraft B77W/H-SDE1E2E3FGHIJ2J3J4J5M1RWXY/LB1D1

Departure

Time N/A
Airport São Paulo/Guarulhos–Governor André Franco Montoro International Airport (SBGR)

Arrival

Time 2026-04-27 01:04
Airport Amsterdam Airport Schiphol (EHAM)
Time Latitude Longitude Altitude Speed Heading
2026-04-26 21:34 36.73396 -24.44447 35248 ft 462 kts 11°
2026-04-26 21:35 36.79615 -24.42407 35248 ft 462 kts 11°
2026-04-26 21:35 36.85834 -24.40363 35248 ft 462 kts 11°
2026-04-26 21:36 36.92055 -24.38316 35272 ft 462 kts 11°
2026-04-26 21:36 36.98274 -24.36265 35254 ft 461 kts 11°
2026-04-26 21:37 37.04476 -24.34217 35251 ft 461 kts 11°
2026-04-26 21:37 37.10667 -24.32169 35250 ft 460 kts 11°
2026-04-26 21:38 37.16811 -24.30134 35252 ft 459 kts 11°
2026-04-26 21:38 37.22991 -24.28083 35259 ft 459 kts 11°
2026-04-26 21:39 37.29173 -24.26029 35251 ft 460 kts 11°
2026-04-26 21:39 37.35363 -24.23967 35249 ft 461 kts 11°
2026-04-26 21:40 37.41563 -24.21898 35252 ft 461 kts 11°
2026-04-26 21:40 37.47768 -24.19824 35258 ft 462 kts 12°
2026-04-26 21:41 37.53977 -24.17746 35256 ft 462 kts 12°
2026-04-26 21:41 37.60196 -24.15661 35256 ft 462 kts 12°
2026-04-26 21:42 37.66415 -24.13571 35252 ft 463 kts 12°
2026-04-26 21:42 37.72634 -24.11479 35259 ft 463 kts 12°
2026-04-26 21:43 37.78856 -24.09381 35252 ft 463 kts 12°
2026-04-26 21:43 37.85081 -24.07279 35255 ft 463 kts 12°
2026-04-26 21:44 37.91304 -24.05176 35266 ft 463 kts 12°
2026-04-26 21:44 37.97530 -24.03065 35259 ft 463 kts 12°
2026-04-26 21:45 38.03753 -24.00952 35258 ft 463 kts 12°
2026-04-26 21:45 38.09977 -23.98835 35258 ft 463 kts 12°
2026-04-26 21:46 38.16195 -23.96717 35261 ft 463 kts 12°
2026-04-26 21:46 38.22414 -23.94595 35261 ft 463 kts 12°
2026-04-26 21:47 38.28590 -23.92484 35261 ft 463 kts 12°
2026-04-26 21:47 38.34809 -23.90354 35261 ft 463 kts 12°
2026-04-26 21:48 38.41025 -23.88222 35260 ft 463 kts 13°
2026-04-26 21:48 38.47252 -23.86082 35262 ft 463 kts 13°
2026-04-26 21:49 38.53479 -23.83938 35264 ft 464 kts 13°
2026-04-26 21:49 38.59710 -23.81789 35264 ft 464 kts 13°
2026-04-26 21:50 38.64938 -23.79983 35265 ft 464 kts 13°
2026-04-26 21:50 38.72191 -23.77472 35264 ft 465 kts 13°
2026-04-26 21:51 38.78432 -23.75308 35264 ft 465 kts 13°
2026-04-26 21:51 38.84677 -23.73139 35270 ft 465 kts 13°
2026-04-26 21:52 38.90938 -23.70961 35506 ft 467 kts 13°
2026-04-26 21:52 38.94074 -23.69867 35814 ft 466 kts 13°
2026-04-26 21:52 38.97171 -23.68665 36130 ft 465 kts 18°
2026-04-26 21:53 39.00160 -23.67073 36442 ft 466 kts 22°
2026-04-26 21:53 39.03051 -23.65191 36684 ft 467 kts 27°
2026-04-26 21:53 39.05777 -23.63003 36891 ft 469 kts 30°
2026-04-26 21:53 39.08488 -23.60678 37103 ft 469 kts 31°
2026-04-26 21:54 39.11199 -23.58320 37210 ft 470 kts 31°
2026-04-26 21:54 39.13905 -23.55959 37263 ft 470 kts 31°
2026-04-26 21:54 39.19298 -23.51273 37258 ft 464 kts 31°
2026-04-26 21:55 39.24650 -23.46652 37273 ft 462 kts 31°
2026-04-26 21:55 39.29986 -23.42054 37279 ft 461 kts 31°
2026-04-26 21:56 39.35331 -23.37442 37279 ft 462 kts 31°
2026-04-26 21:56 39.40680 -23.32817 37282 ft 464 kts 31°
2026-04-26 21:57 39.46051 -23.28161 37281 ft 465 kts 31°
2026-04-26 21:57 39.51432 -23.23488 37285 ft 467 kts 31°
2026-04-26 21:58 39.56828 -23.18793 37279 ft 468 kts 31°
2026-04-26 21:58 39.62233 -23.14081 37283 ft 468 kts 31°
2026-04-26 21:59 39.67642 -23.09357 37277 ft 469 kts 32°
2026-04-26 21:59 39.73053 -23.04621 37278 ft 469 kts 32°
2026-04-26 22:00 39.78465 -22.99876 37296 ft 469 kts 32°
2026-04-26 22:00 39.83878 -22.95120 37295 ft 469 kts 32°
2026-04-26 22:01 39.89289 -22.90358 37274 ft 469 kts 32°
2026-04-26 22:01 39.94694 -22.85591 37273 ft 469 kts 32°
2026-04-26 22:02 39.99187 -22.81621 37296 ft 469 kts 32°
2026-04-26 22:02 40.05505 -22.76028 37280 ft 470 kts 32°
2026-04-26 22:03 40.10913 -22.71232 37288 ft 470 kts 32°
2026-04-26 22:03 40.16328 -22.66419 37290 ft 471 kts 32°
2026-04-26 22:04 40.21751 -22.61590 37286 ft 471 kts 33°
2026-04-26 22:04 40.27134 -22.56786 37288 ft 472 kts 33°
2026-04-26 22:05 40.32592 -22.51906 37289 ft 472 kts 33°
2026-04-26 22:05 40.38012 -22.47051 37293 ft 472 kts 33°
2026-04-26 22:06 40.43397 -22.42217 37290 ft 472 kts 33°
2026-04-26 22:06 40.48813 -22.37346 37287 ft 472 kts 33°
2026-04-26 22:07 40.54225 -22.32468 37287 ft 472 kts 33°
2026-04-26 22:07 40.58760 -22.28375 37289 ft 472 kts 33°
2026-04-26 22:08 40.65042 -22.22691 37288 ft 472 kts 33°
2026-04-26 22:08 40.70447 -22.17791 37290 ft 472 kts 33°
2026-04-26 22:09 40.74941 -22.13709 37290 ft 472 kts 33°
2026-04-26 22:09 40.81253 -22.07964 37294 ft 472 kts 33°
2026-04-26 22:10 40.85744 -22.03869 37294 ft 472 kts 33°
2026-04-26 22:10 40.91147 -21.98932 37291 ft 472 kts 33°
2026-04-26 22:11 40.96545 -21.93990 37289 ft 472 kts 33°
2026-04-26 22:11 41.01942 -21.89040 37287 ft 472 kts 33°
2026-04-26 22:12 41.07332 -21.84086 37288 ft 472 kts 33°
2026-04-26 22:12 41.12724 -21.79119 37297 ft 472 kts 33°
2026-04-26 22:13 41.18111 -21.74147 37294 ft 472 kts 33°
2026-04-26 22:13 41.23498 -21.69164 37290 ft 472 kts 34°
2026-04-26 22:14 41.28880 -21.64177 37296 ft 472 kts 34°
2026-04-26 22:14 41.34261 -21.59179 37292 ft 472 kts 34°
2026-04-26 22:15 41.39639 -21.54175 37285 ft 472 kts 34°
2026-04-26 22:15 41.45017 -21.49161 37294 ft 472 kts 34°
2026-04-26 22:16 41.50393 -21.44137 37301 ft 472 kts 34°
2026-04-26 22:16 41.55773 -21.39099 37294 ft 472 kts 34°
2026-04-26 22:17 41.61151 -21.34053 37295 ft 472 kts 34°
2026-04-26 22:17 41.66490 -21.29033 37297 ft 472 kts 34°
2026-04-26 22:18 41.71863 -21.23971 37300 ft 472 kts 34°
2026-04-26 22:18 41.77229 -21.18905 37301 ft 472 kts 34°
2026-04-26 22:19 41.82594 -21.13829 37309 ft 472 kts 34°
2026-04-26 22:19 41.87960 -21.08741 37304 ft 472 kts 34°
2026-04-26 22:20 41.93314 -21.03654 37303 ft 472 kts 34°
2026-04-26 22:20 41.98666 -20.98558 37302 ft 471 kts 34°
2026-04-26 22:21 42.04010 -20.93460 37306 ft 471 kts 34°
2026-04-26 22:21 42.09353 -20.88352 37308 ft 471 kts 34°
2026-04-26 22:22 42.14691 -20.83237 37308 ft 471 kts 34°
2026-04-26 22:22 42.20027 -20.78114 37313 ft 471 kts 34°
2026-04-26 22:23 42.25364 -20.72979 37315 ft 471 kts 34°
2026-04-26 22:23 42.30700 -20.67834 37304 ft 471 kts 34°
2026-04-26 22:24 42.36036 -20.62677 37302 ft 472 kts 34°
2026-04-26 22:24 42.41374 -20.57508 37306 ft 472 kts 34°
2026-04-26 22:25 42.46712 -20.52328 37318 ft 472 kts 34°
2026-04-26 22:25 42.52049 -20.47139 37326 ft 472 kts 34°
2026-04-26 22:26 42.57385 -20.41938 37307 ft 472 kts 34°
2026-04-26 22:26 42.62720 -20.36727 37311 ft 472 kts 34°
2026-04-26 22:27 42.68051 -20.31509 37310 ft 472 kts 34°
2026-04-26 22:27 42.73345 -20.26316 37312 ft 472 kts 34°
2026-04-26 22:28 42.78673 -20.21079 37313 ft 472 kts 34°
2026-04-26 22:28 42.83999 -20.15832 37311 ft 473 kts 34°
2026-04-26 22:29 42.89326 -20.10572 37319 ft 473 kts 34°
2026-04-26 22:29 42.94655 -20.05301 37314 ft 473 kts 34°
2026-04-26 22:30 42.99968 -20.00018 37315 ft 473 kts 36°
2026-04-26 22:30 43.05077 -19.94357 37316 ft 473 kts 39°
2026-04-26 22:31 43.10104 -19.88560 37318 ft 473 kts 39°
2026-04-26 22:31 43.15134 -19.82758 37318 ft 473 kts 39°
2026-04-26 22:32 43.20172 -19.76970 37324 ft 473 kts 38°
2026-04-26 22:32 43.25211 -19.71188 37317 ft 472 kts 38°
2026-04-26 22:33 43.32763 -19.62499 37314 ft 472 kts 38°
2026-04-26 22:34 43.37784 -19.56704 37315 ft 471 kts 38°
2026-04-26 22:34 43.42794 -19.50910 37322 ft 470 kts 38°
2026-04-26 22:35 43.47795 -19.45111 37314 ft 470 kts 38°
2026-04-26 22:35 43.52790 -19.39308 37314 ft 469 kts 38°
2026-04-26 22:36 43.57776 -19.33501 37315 ft 469 kts 38°
2026-04-26 22:36 43.62761 -19.27684 37326 ft 469 kts 38°
2026-04-26 22:37 43.67709 -19.21895 37317 ft 469 kts 38°
2026-04-26 22:37 43.72693 -19.16053 37315 ft 469 kts 38°
2026-04-26 22:38 43.77669 -19.10205 37314 ft 470 kts 38°
2026-04-26 22:38 43.82643 -19.04348 37316 ft 470 kts 38°
2026-04-26 22:39 43.87617 -18.98477 37313 ft 470 kts 38°
2026-04-26 22:39 43.92588 -18.92595 37312 ft 470 kts 39°
2026-04-26 22:40 43.97559 -18.86701 37315 ft 470 kts 39°
2026-04-26 22:40 44.02530 -18.80793 37320 ft 470 kts 39°
2026-04-26 22:41 44.07501 -18.74871 37315 ft 471 kts 39°
2026-04-26 22:41 44.12467 -18.68944 37313 ft 471 kts 39°
2026-04-26 22:42 44.17432 -18.63002 37311 ft 470 kts 39°
2026-04-26 22:42 44.22393 -18.57051 37309 ft 470 kts 39°
2026-04-26 22:43 44.27347 -18.51094 37314 ft 470 kts 38°
2026-04-26 22:43 44.32295 -18.45131 37304 ft 470 kts 38°
2026-04-26 22:44 44.37239 -18.39161 37311 ft 469 kts 39°
2026-04-26 22:44 44.42177 -18.33183 37314 ft 469 kts 39°
2026-04-26 22:45 44.47104 -18.27205 37316 ft 469 kts 38°
2026-04-26 22:45 44.51997 -18.21254 37309 ft 469 kts 38°
2026-04-26 22:46 44.56914 -18.15259 37306 ft 469 kts 38°
2026-04-26 22:46 44.61831 -18.09252 37309 ft 468 kts 39°
2026-04-26 22:47 44.66742 -18.03236 37320 ft 468 kts 39°
2026-04-26 22:47 44.71654 -17.97208 37307 ft 469 kts 39°
2026-04-26 22:48 44.76559 -17.91171 37306 ft 469 kts 39°
2026-04-26 22:48 44.81460 -17.85126 37307 ft 468 kts 39°
2026-04-26 22:49 44.86360 -17.79069 37309 ft 468 kts 39°
2026-04-26 22:49 44.91252 -17.73006 37310 ft 469 kts 39°
2026-04-26 22:50 44.96145 -17.66929 37304 ft 469 kts 39°
2026-04-26 22:50 45.01036 -17.60839 37308 ft 468 kts 39°
2026-04-26 22:51 45.05918 -17.54746 37305 ft 468 kts 39°
2026-04-26 22:51 45.10799 -17.48640 37314 ft 468 kts 39°
2026-04-26 22:52 45.15675 -17.42526 37308 ft 468 kts 39°
2026-04-26 22:52 45.20550 -17.36398 37307 ft 468 kts 39°
2026-04-26 22:53 45.25420 -17.30261 37311 ft 468 kts 39°
2026-04-26 22:53 45.30292 -17.24109 37314 ft 468 kts 39°
2026-04-26 22:54 45.35154 -17.17953 37308 ft 468 kts 39°
2026-04-26 22:54 45.39987 -17.11821 37309 ft 468 kts 39°
2026-04-26 22:55 45.44844 -17.05642 37313 ft 468 kts 39°
2026-04-26 22:55 45.49697 -16.99454 37311 ft 468 kts 39°
2026-04-26 22:56 45.54554 -16.93246 37308 ft 469 kts 40°
2026-04-26 22:56 45.59401 -16.87034 37322 ft 469 kts 40°
2026-04-26 22:57 45.64251 -16.80805 37306 ft 469 kts 40°
2026-04-26 22:57 45.68314 -16.75575 37299 ft 469 kts 40°
2026-04-26 22:58 45.73158 -16.69325 37323 ft 469 kts 40°
2026-04-26 22:58 45.78784 -16.62047 37312 ft 469 kts 40°
2026-04-26 22:59 45.82804 -16.56834 37304 ft 469 kts 40°
2026-04-26 22:59 45.87638 -16.50552 37311 ft 469 kts 40°
2026-04-26 23:00 45.92465 -16.44263 37308 ft 468 kts 40°
2026-04-26 23:00 45.97283 -16.37970 37318 ft 468 kts 40°
2026-04-26 23:01 46.02101 -16.31661 37313 ft 468 kts 40°
2026-04-26 23:01 46.06912 -16.25347 37315 ft 468 kts 40°
2026-04-26 23:02 46.11715 -16.19028 37310 ft 468 kts 40°
2026-04-26 23:02 46.16515 -16.12696 37334 ft 467 kts 40°
2026-04-26 23:03 46.21310 -16.06357 37318 ft 468 kts 40°
2026-04-26 23:03 46.26101 -16.00006 37317 ft 467 kts 40°
2026-04-26 23:04 46.30886 -15.93647 37319 ft 467 kts 40°
2026-04-26 23:04 46.35662 -15.87285 37316 ft 467 kts 40°
2026-04-26 23:05 46.40434 -15.80912 37325 ft 467 kts 40°
2026-04-26 23:05 46.45204 -15.74526 37318 ft 467 kts 40°
2026-04-26 23:06 46.49937 -15.68174 37326 ft 466 kts 40°
2026-04-26 23:06 46.54693 -15.61774 37322 ft 466 kts 40°
2026-04-26 23:07 46.59447 -15.55362 37324 ft 466 kts 40°
2026-04-26 23:07 46.64196 -15.48941 37330 ft 466 kts 40°
2026-04-26 23:08 46.68941 -15.42508 37322 ft 466 kts 40°
2026-04-26 23:08 46.73682 -15.36065 37323 ft 466 kts 40°
2026-04-26 23:09 46.78415 -15.29616 37331 ft 466 kts 40°
2026-04-26 23:09 46.83148 -15.23151 37349 ft 466 kts 40°
2026-04-26 23:10 46.87861 -15.16698 37340 ft 466 kts 40°
2026-04-26 23:10 46.92588 -15.10210 37335 ft 466 kts 40°
2026-04-26 23:11 46.97309 -15.03700 37334 ft 466 kts 42°
2026-04-26 23:11 47.01516 -14.96434 37340 ft 470 kts 52°
2026-04-26 23:12 47.04969 -14.88263 37347 ft 472 kts 56°
2026-04-26 23:12 47.08339 -14.79986 37338 ft 473 kts 56°
2026-04-26 23:13 47.11699 -14.71769 37345 ft 473 kts 56°
2026-04-26 23:13 47.15095 -14.63505 37351 ft 473 kts 56°
2026-04-26 23:14 47.18497 -14.55221 37344 ft 473 kts 56°
2026-04-26 23:14 47.21894 -14.46927 37346 ft 474 kts 56°
2026-04-26 23:15 47.25287 -14.38615 37348 ft 474 kts 56°
2026-04-26 23:15 47.28675 -14.30288 37351 ft 474 kts 56°
2026-04-26 23:16 47.32057 -14.21948 37370 ft 474 kts 56°
2026-04-26 23:16 47.35438 -14.13587 37359 ft 475 kts 56°
2026-04-26 23:17 47.38814 -14.05213 37353 ft 475 kts 56°
2026-04-26 23:17 47.42186 -13.96821 37350 ft 475 kts 56°
2026-04-26 23:18 47.45547 -13.88431 37349 ft 475 kts 56°
2026-04-26 23:18 47.48904 -13.80026 37356 ft 475 kts 57°
2026-04-26 23:19 47.52254 -13.71613 37352 ft 475 kts 57°
2026-04-26 23:19 47.55598 -13.63188 37352 ft 475 kts 57°
2026-04-26 23:20 47.58934 -13.54754 37356 ft 475 kts 57°
2026-04-26 23:20 47.62270 -13.46298 37361 ft 475 kts 57°
2026-04-26 23:21 47.65602 -13.37825 37363 ft 476 kts 57°
2026-04-26 23:21 47.68931 -13.29329 37357 ft 476 kts 57°
2026-04-26 23:22 47.72253 -13.20829 37359 ft 476 kts 57°
2026-04-26 23:22 47.75570 -13.12311 37358 ft 476 kts 57°
2026-04-26 23:23 47.78879 -13.03788 37358 ft 476 kts 57°
2026-04-26 23:23 47.82179 -12.95260 37358 ft 476 kts 57°
2026-04-26 23:24 47.85473 -12.86721 37364 ft 476 kts 57°
2026-04-26 23:24 47.88760 -12.78174 37378 ft 476 kts 58°
2026-04-26 23:25 47.92022 -12.69666 37363 ft 476 kts 58°
2026-04-26 23:25 47.95305 -12.61074 37365 ft 477 kts 58°
2026-04-26 23:26 47.98582 -12.52469 37368 ft 477 kts 58°
2026-04-26 23:26 48.01854 -12.43850 37363 ft 477 kts 58°
2026-04-26 23:27 48.05120 -12.35220 37368 ft 478 kts 58°
2026-04-26 23:27 48.08384 -12.26565 37364 ft 478 kts 58°
2026-04-26 23:28 48.11643 -12.17896 37364 ft 478 kts 58°
2026-04-26 23:28 48.14896 -12.09214 37364 ft 478 kts 58°
2026-04-26 23:29 48.18145 -12.00515 37375 ft 479 kts 58°
2026-04-26 23:29 48.21396 -11.91783 37370 ft 480 kts 58°
2026-04-26 23:30 48.24643 -11.83031 37366 ft 480 kts 58°
2026-04-26 23:30 48.27886 -11.74263 37368 ft 481 kts 58°
2026-04-26 23:31 48.31122 -11.65481 37378 ft 481 kts 59°
2026-04-26 23:31 48.34357 -11.56676 37370 ft 481 kts 59°
2026-04-26 23:32 48.37588 -11.47850 37363 ft 482 kts 59°
2026-04-26 23:32 48.40811 -11.39016 37361 ft 482 kts 59°
2026-04-26 23:33 48.44028 -11.30172 37358 ft 482 kts 59°
2026-04-26 23:33 48.47240 -11.21308 37368 ft 482 kts 59°
2026-04-26 23:34 48.50419 -11.12509 37359 ft 482 kts 59°
2026-04-26 23:34 48.53616 -11.03628 37358 ft 482 kts 59°
2026-04-26 23:35 48.56809 -10.94727 37354 ft 482 kts 59°
2026-04-26 23:35 48.59992 -10.85826 37370 ft 482 kts 59°
2026-04-26 23:36 48.63167 -10.76917 37369 ft 481 kts 59°
2026-04-26 23:36 48.66336 -10.67993 37349 ft 481 kts 59°
2026-04-26 23:37 48.69497 -10.59066 37348 ft 481 kts 59°
2026-04-26 23:37 48.72747 -10.50216 37359 ft 480 kts 55°
2026-04-26 23:38 48.76794 -10.42231 37382 ft 478 kts 48°
2026-04-26 23:38 48.81104 -10.34544 37355 ft 478 kts 48°
2026-04-26 23:39 48.85388 -10.26810 37352 ft 479 kts 48°
2026-04-26 23:39 48.89649 -10.19026 37350 ft 479 kts 48°
2026-04-26 23:40 48.93875 -10.11270 37366 ft 479 kts 49°
2026-04-26 23:40 48.98127 -10.03453 37353 ft 480 kts 49°
2026-04-26 23:41 49.02358 -9.95562 37348 ft 481 kts 50°
2026-04-26 23:41 49.06491 -9.87547 37352 ft 481 kts 50°
2026-04-26 23:42 49.10607 -9.79503 37351 ft 481 kts 50°
2026-04-26 23:42 49.16793 -9.67439 37344 ft 481 kts 50°
2026-04-26 23:43 49.20917 -9.59385 37343 ft 481 kts 50°
2026-04-26 23:43 49.25036 -9.51317 37342 ft 481 kts 50°
2026-04-26 23:44 49.29146 -9.43242 37342 ft 481 kts 50°
2026-04-26 23:44 49.33251 -9.35151 37343 ft 481 kts 50°
2026-04-26 23:45 49.36657 -9.28418 37342 ft 481 kts 50°
2026-04-26 23:45 49.41437 -9.18940 37342 ft 480 kts 50°
2026-04-26 23:46 49.44831 -9.12192 37345 ft 480 kts 50°
2026-04-26 23:46 49.49594 -9.02690 37345 ft 479 kts 50°
2026-04-26 23:47 49.52972 -8.95932 37346 ft 480 kts 51°
2026-04-26 23:47 49.57693 -8.86455 37347 ft 480 kts 51°
2026-04-26 23:48 49.61094 -8.79609 37343 ft 480 kts 51°
2026-04-26 23:48 49.65150 -8.71420 37341 ft 480 kts 51°
2026-04-26 23:49 49.69201 -8.63216 37337 ft 480 kts 51°
2026-04-26 23:49 49.73245 -8.55001 37334 ft 481 kts 51°
2026-04-26 23:50 49.77262 -8.46816 37336 ft 481 kts 51°
2026-04-26 23:50 49.81300 -8.38561 37337 ft 481 kts 51°
2026-04-26 23:51 49.85331 -8.30297 37334 ft 481 kts 51°
2026-04-26 23:51 49.89359 -8.22011 37334 ft 481 kts 51°
2026-04-26 23:52 49.93381 -8.13713 37337 ft 481 kts 52°
2026-04-26 23:52 49.97399 -8.05399 37333 ft 481 kts 52°
2026-04-26 23:53 50.00899 -7.96518 37336 ft 483 kts 63°
2026-04-26 23:53 50.03463 -7.86836 37337 ft 485 kts 67°
2026-04-26 23:54 50.05894 -7.77046 37337 ft 485 kts 67°
2026-04-26 23:54 50.08339 -7.67256 37332 ft 485 kts 67°
2026-04-26 23:55 50.10802 -7.57464 37332 ft 486 kts 67°
2026-04-26 23:55 50.13269 -7.47657 37329 ft 486 kts 67°
2026-04-26 23:56 50.15731 -7.37827 37330 ft 487 kts 68°
2026-04-26 23:56 50.18186 -7.27980 37322 ft 487 kts 68°
2026-04-26 23:57 50.20632 -7.18121 37327 ft 487 kts 68°
2026-04-26 23:57 50.23056 -7.08305 37322 ft 487 kts 68°
2026-04-26 23:58 50.25484 -6.98429 37320 ft 487 kts 68°
2026-04-26 23:58 50.27905 -6.88540 37321 ft 487 kts 68°
2026-04-26 23:59 50.30317 -6.78643 37321 ft 487 kts 68°
2026-04-26 23:59 50.32724 -6.68719 37321 ft 488 kts 68°
2026-04-27 00:00 50.35123 -6.58783 37322 ft 488 kts 68°
2026-04-27 00:00 50.37517 -6.48827 37324 ft 489 kts 68°
2026-04-27 00:01 50.39906 -6.38846 37315 ft 490 kts 69°
2026-04-27 00:01 50.42294 -6.28817 37321 ft 492 kts 69°
2026-04-27 00:02 50.44678 -6.18761 37318 ft 493 kts 69°
2026-04-27 00:02 50.47062 -6.08662 37316 ft 493 kts 69°
2026-04-27 00:03 50.49436 -5.98554 37303 ft 494 kts 70°
2026-04-27 00:03 50.51811 -5.88397 37321 ft 496 kts 70°
2026-04-27 00:04 50.54181 -5.78210 37320 ft 497 kts 70°
2026-04-27 00:04 50.56547 -5.67990 37317 ft 498 kts 70°
2026-04-27 00:05 50.58908 -5.57748 37302 ft 497 kts 70°
2026-04-27 00:05 50.61259 -5.47498 37309 ft 497 kts 70°
2026-04-27 00:06 50.63600 -5.37241 37308 ft 498 kts 70°
2026-04-27 00:06 50.65917 -5.27042 37307 ft 498 kts 70°
2026-04-27 00:07 50.68244 -5.16750 37307 ft 498 kts 70°
2026-04-27 00:07 50.70561 -5.06448 37307 ft 499 kts 71°
2026-04-27 00:08 50.72870 -4.96131 37307 ft 499 kts 71°
2026-04-27 00:08 50.75172 -4.85799 37306 ft 499 kts 71°
2026-04-27 00:09 50.77462 -4.75465 37307 ft 498 kts 71°
2026-04-27 00:09 50.79743 -4.65126 37298 ft 499 kts 71°
2026-04-27 00:10 50.82019 -4.54751 37309 ft 499 kts 71°
2026-04-27 00:10 50.84287 -4.44365 37309 ft 500 kts 71°
2026-04-27 00:11 50.86552 -4.33938 37307 ft 501 kts 71°
2026-04-27 00:11 50.88809 -4.23498 37308 ft 501 kts 71°
2026-04-27 00:12 50.91062 -4.13019 37303 ft 503 kts 71°
2026-04-27 00:12 50.93298 -4.02570 37309 ft 505 kts 72°
2026-04-27 00:13 50.95546 -3.92008 37309 ft 506 kts 72°
2026-04-27 00:13 50.97790 -3.81410 37307 ft 507 kts 72°
2026-04-27 00:14 51.00028 -3.70780 37301 ft 508 kts 72°
2026-04-27 00:14 51.02262 -3.60118 37310 ft 509 kts 72°
2026-04-27 00:15 51.04488 -3.49438 37305 ft 510 kts 72°
2026-04-27 00:15 51.06711 -3.38716 37296 ft 511 kts 72°
2026-04-27 00:16 51.08923 -3.27986 37292 ft 511 kts 72°
2026-04-27 00:16 51.11126 -3.17240 37303 ft 511 kts 72°
2026-04-27 00:17 51.13324 -3.06465 37295 ft 512 kts 73°
2026-04-27 00:17 51.15511 -2.95681 37300 ft 512 kts 73°
2026-04-27 00:18 51.17691 -2.84877 37284 ft 512 kts 73°
2026-04-27 00:18 51.19860 -2.74066 37295 ft 513 kts 73°
2026-04-27 00:19 51.22025 -2.63214 37305 ft 514 kts 73°
2026-04-27 00:19 51.24182 -2.52339 37293 ft 515 kts 73°
2026-04-27 00:20 51.26331 -2.41448 37299 ft 515 kts 73°
2026-04-27 00:20 51.28473 -2.30534 37294 ft 515 kts 73°
2026-04-27 00:21 51.30605 -2.19604 37303 ft 515 kts 74°
2026-04-27 00:21 51.32724 -2.08678 37312 ft 516 kts 73°
2026-04-27 00:22 51.34848 -1.97722 37301 ft 516 kts 72°
2026-04-27 00:22 51.37251 -1.86901 37297 ft 516 kts 70°
2026-04-27 00:23 51.39702 -1.76123 37302 ft 516 kts 71°
2026-04-27 00:23 51.42079 -1.65283 37306 ft 517 kts 71°
2026-04-27 00:24 51.44455 -1.54404 37304 ft 517 kts 71°
2026-04-27 00:24 51.46828 -1.43505 37289 ft 518 kts 71°
2026-04-27 00:25 51.49193 -1.32594 37295 ft 518 kts 71°
2026-04-27 00:25 51.51552 -1.21654 37296 ft 519 kts 72°
2026-04-27 00:26 51.53700 -1.10606 37296 ft 518 kts 76°
2026-04-27 00:26 51.55483 -0.99394 37294 ft 518 kts 77°
2026-04-27 00:27 51.57236 -0.88156 37321 ft 518 kts 76°
2026-04-27 00:27 51.59014 -0.76914 37318 ft 519 kts 76°
2026-04-27 00:28 51.60785 -0.65735 37319 ft 519 kts 76°
2026-04-27 00:28 51.62567 -0.54409 37321 ft 519 kts 77°
2026-04-27 00:29 51.64325 -0.43142 37321 ft 519 kts 77°
2026-04-27 00:29 51.66072 -0.31871 37294 ft 519 kts 77°
2026-04-27 00:30 51.67804 -0.20663 37292 ft 519 kts 76°
2026-04-27 00:30 51.69678 -0.09444 37295 ft 519 kts 76°
2026-04-27 00:31 51.71446 0.01834 37317 ft 519 kts 77°
2026-04-27 00:31 51.73174 0.13135 37320 ft 519 kts 77°
2026-04-27 00:32 51.74905 0.24422 37322 ft 519 kts 77°
2026-04-27 00:32 51.76638 0.35721 37320 ft 518 kts 77°
2026-04-27 00:33 51.78359 0.47027 37320 ft 518 kts 77°
2026-04-27 00:33 51.80068 0.58332 37319 ft 518 kts 77°
2026-04-27 00:34 51.81773 0.69634 37328 ft 519 kts 76°
2026-04-27 00:34 51.83516 0.80957 37322 ft 519 kts 76°
2026-04-27 00:35 51.85435 0.92206 37321 ft 519 kts 73°
2026-04-27 00:35 51.87181 1.01498 37326 ft 519 kts 73°
2026-04-27 00:36 51.89256 1.12685 37322 ft 519 kts 73°
2026-04-27 00:36 51.91278 1.23905 37328 ft 519 kts 73°
2026-04-27 00:37 51.93272 1.35116 37208 ft 516 kts 73°
2026-04-27 00:37 51.94269 1.40742 36404 ft 520 kts 74°
2026-04-27 00:37 51.95261 1.46353 35676 ft 518 kts 74°
2026-04-27 00:38 51.96255 1.51986 34838 ft 519 kts 73°
2026-04-27 00:38 51.97248 1.57626 33937 ft 521 kts 73°
2026-04-27 00:38 51.98239 1.63272 32958 ft 522 kts 73°
2026-04-27 00:38 51.99229 1.68937 32037 ft 522 kts 74°
2026-04-27 00:39 52.00161 1.74589 31464 ft 514 kts 75°
2026-04-27 00:39 52.01034 1.80171 30872 ft 508 kts 76°
2026-04-27 00:39 52.01881 1.85717 30282 ft 503 kts 76°
2026-04-27 00:39 52.02713 1.91189 29624 ft 497 kts 76°
2026-04-27 00:40 52.03542 1.96611 29039 ft 492 kts 76°
2026-04-27 00:40 52.04363 2.01964 28460 ft 486 kts 76°
2026-04-27 00:40 52.05179 2.07259 27881 ft 481 kts 75°
2026-04-27 00:40 52.05985 2.12499 27306 ft 476 kts 75°
2026-04-27 00:41 52.06772 2.17623 26747 ft 471 kts 75°
2026-04-27 00:41 52.07570 2.22839 26180 ft 467 kts 76°
2026-04-27 00:41 52.08336 2.27868 25639 ft 463 kts 76°
2026-04-27 00:41 52.09105 2.32931 25105 ft 459 kts 76°
2026-04-27 00:42 52.09866 2.37955 24547 ft 456 kts 76°
2026-04-27 00:42 52.10620 2.42945 24005 ft 453 kts 76°
2026-04-27 00:42 52.11383 2.47902 23371 ft 450 kts 73°
2026-04-27 00:42 52.12573 2.52544 22923 ft 440 kts 59°
2026-04-27 00:43 52.14124 2.56780 22545 ft 432 kts 57°
2026-04-27 00:43 52.15699 2.60899 22157 ft 426 kts 57°
2026-04-27 00:43 52.17261 2.64996 21783 ft 426 kts 57°
2026-04-27 00:43 52.18805 2.69117 21402 ft 427 kts 58°
2026-04-27 00:44 52.20336 2.73273 21034 ft 427 kts 58°
2026-04-27 00:44 52.21843 2.77424 20661 ft 425 kts 59°
2026-04-27 00:44 52.23337 2.81571 20277 ft 422 kts 59°
2026-04-27 00:44 52.24814 2.85692 19911 ft 420 kts 59°
2026-04-27 00:45 52.26281 2.89793 19559 ft 417 kts 60°
2026-04-27 00:45 52.27737 2.93875 19188 ft 415 kts 60°
2026-04-27 00:45 52.29183 2.97932 18821 ft 412 kts 59°
2026-04-27 00:45 52.30620 3.01966 18426 ft 410 kts 59°
2026-04-27 00:46 52.32047 3.05983 18036 ft 407 kts 59°
2026-04-27 00:46 52.33458 3.09958 17654 ft 404 kts 59°
2026-04-27 00:46 52.34862 3.13919 17288 ft 401 kts 59°
2026-04-27 00:46 52.36249 3.17838 16939 ft 398 kts 59°
2026-04-27 00:47 52.37629 3.21744 16583 ft 395 kts 59°
2026-04-27 00:47 52.39002 3.25635 16236 ft 393 kts 59°
2026-04-27 00:47 52.40364 3.29499 15887 ft 391 kts 59°
2026-04-27 00:47 52.41717 3.33341 15559 ft 389 kts 59°
2026-04-27 00:48 52.43064 3.37177 15208 ft 387 kts 59°
2026-04-27 00:48 52.44400 3.41000 14864 ft 386 kts 60°
2026-04-27 00:48 52.45417 3.45022 14531 ft 382 kts 74°
2026-04-27 00:48 52.46006 3.49264 14198 ft 381 kts 77°
2026-04-27 00:49 52.46547 3.53523 13826 ft 381 kts 77°
2026-04-27 00:49 52.47099 3.57775 13489 ft 381 kts 77°
2026-04-27 00:49 52.47669 3.62006 13129 ft 379 kts 76°
2026-04-27 00:49 52.48252 3.66209 12783 ft 378 kts 76°
2026-04-27 00:50 52.48838 3.70380 12434 ft 372 kts 76°
2026-04-27 00:50 52.49993 3.78539 11779 ft 350 kts 76°
2026-04-27 00:50 52.50520 3.82273 11458 ft 322 kts 75°
2026-04-27 00:51 52.51014 3.85783 11211 ft 312 kts 75°
2026-04-27 00:51 52.51498 3.89225 10945 ft 308 kts 76°
2026-04-27 00:51 52.51969 3.92592 10674 ft 299 kts 75°
2026-04-27 00:51 52.52359 3.95907 10399 ft 292 kts 86°
2026-04-27 00:52 52.52020 3.99143 10144 ft 285 kts 111°
2026-04-27 00:52 52.51263 4.02151 9894 ft 286 kts 112°
2026-04-27 00:52 52.50510 4.05184 9624 ft 287 kts 111°
2026-04-27 00:52 52.49771 4.08180 9364 ft 286 kts 111°
2026-04-27 00:53 52.49023 4.11221 9102 ft 283 kts 111°
2026-04-27 00:53 52.48303 4.14151 8865 ft 278 kts 111°
2026-04-27 00:53 52.47585 4.17077 8609 ft 275 kts 111°
2026-04-27 00:53 52.46878 4.19958 8356 ft 271 kts 111°
2026-04-27 00:54 52.46177 4.22816 8146 ft 271 kts 111°
2026-04-27 00:54 52.45473 4.25687 7906 ft 272 kts 111°
2026-04-27 00:54 52.44764 4.28572 7656 ft 273 kts 111°
2026-04-27 00:54 52.44052 4.31455 7421 ft 273 kts 111°
2026-04-27 00:55 52.43340 4.34334 7183 ft 271 kts 112°
2026-04-27 00:55 52.42339 4.36883 6902 ft 268 kts 138°
2026-04-27 00:55 52.40710 4.38264 6691 ft 267 kts 167°
2026-04-27 00:55 52.38866 4.38433 6456 ft 266 kts 184°
2026-04-27 00:56 52.37014 4.38177 6215 ft 267 kts 185°
2026-04-27 00:56 52.35165 4.37921 5974 ft 266 kts 185°
2026-04-27 00:56 52.33356 4.37674 5714 ft 259 kts 184°
2026-04-27 00:56 52.31577 4.37440 5498 ft 254 kts 184°
2026-04-27 00:57 52.29828 4.37214 5266 ft 249 kts 184°
2026-04-27 00:57 52.28117 4.36995 5036 ft 244 kts 184°
2026-04-27 00:57 52.26426 4.36779 4815 ft 244 kts 184°
2026-04-27 00:57 52.24751 4.36847 4581 ft 238 kts 162°
2026-04-27 00:58 52.23395 4.38236 4387 ft 229 kts 129°
2026-04-27 00:58 52.22530 4.40426 3992 ft 233 kts 115°
2026-04-27 00:58 52.21839 4.42799 3714 ft 230 kts 112°
2026-04-27 00:58 52.21178 4.45131 3489 ft 224 kts 112°
2026-04-27 00:59 52.20827 4.47468 3257 ft 210 kts 89°
2026-04-27 00:59 52.20823 4.49755 3139 ft 198 kts 89°
2026-04-27 00:59 52.20866 4.51948 2907 ft 188 kts 74°
2026-04-27 00:59 52.21384 4.53818 2704 ft 181 kts 62°
2026-04-27 01:00 52.21980 4.55658 2486 ft 184 kts 60°
2026-04-27 01:00 52.22631 4.57431 2254 ft 179 kts 58°
2026-04-27 01:00 52.23260 4.59071 2068 ft 160 kts 58°
2026-04-27 01:00 52.23830 4.60550 1928 ft 151 kts 58°
2026-04-27 01:01 52.24376 4.61964 1735 ft 147 kts 59°
2026-04-27 01:01 52.24920 4.63372 1520 ft 144 kts 60°
2026-04-27 01:01 52.25454 4.64757 1319 ft 145 kts 60°
2026-04-27 01:01 52.25981 4.66122 1115 ft 141 kts 61°
2026-04-27 01:02 52.26487 4.67434 925 ft 136 kts 60°
2026-04-27 01:02 52.26991 4.68746 743 ft 137 kts 59°
2026-04-27 01:02 52.27496 4.70056 545 ft 136 kts 59°
2026-04-27 01:02 52.27994 4.71334 330 ft 132 kts 59°
2026-04-27 01:03 52.28486 4.72597 177 ft 133 kts 59°
2026-04-27 01:03 52.28986 4.73904 41 ft 135 kts 58°
2026-04-27 01:03 52.29482 4.75204 2 ft 129 kts 58°
2026-04-27 01:03 52.29889 4.76274 1 ft 94 kts 58°
2026-04-27 01:04 52.30146 4.76952 2 ft 64 kts 58°
2026-04-27 01:04 52.30327 4.77329 1 ft 28 kts 32°
2026-04-27 01:04 52.30469 4.77406 3 ft 19 kts 348°
2026-04-27 01:04 52.30579 4.77303 4 ft 18 kts 330°
2026-04-27 01:05 52.30654 4.77155 4 ft 14 kts 278°
2026-04-27 01:05 52.30651 4.77000 4 ft 14 kts 271°
2026-04-27 01:05 52.30682 4.76859 4 ft 14 kts 312°
2026-04-27 01:05 52.30706 4.76803 4 ft 9 kts 298°
2026-04-27 01:06 52.30764 4.76736 4 ft 8 kts 337°
2026-04-27 01:06 52.30780 4.76726 4 ft 7 kts 339°
2026-04-27 01:06 52.30800 4.76714 4 ft 0 kts 340°